QTR808 OTHH-RJAA

Flight info

Callsign QTR808
Flight time 7h 43m
Altitude 33000
Route BUNDU B415 KUGTO Q415 TONVO A777 NADSO B505 PG G325 GOTKO/N0490F350 G325 PURPA/K0902S1070 W112 TUSLI W187 IBANO B215 NUKTI W66 DKO W69 EGILO/K0891S1130 W69 HUR B339 LADIX W34 VAPGU W100 ORAVA W201 UNSEK A326 DOBGA DCT DONVO G597 AGAVO/N0489F370 Y644 EGOBA Y697 LANAT Y51 SAMON Y517 ESKAS Y303 ENTAK/N0489F380 Y30 SWAMP
Aircraft B77W/H-SDE1E2E3FGHIJ2J3J4J5M1RWXY/LB1D1

Departure

Time 2026-02-19 03:49
Airport Hamad International Airport (OTHH)

Arrival

Time 2026-02-19 11:33
Airport Narita International Airport (RJAA)
Time Latitude Longitude Altitude Speed Heading
2026-02-19 03:18 25.26599 51.61071 27 ft 0 kts 67°
2026-02-19 03:20 25.26671 51.61235 27 ft 0 kts 248°
2026-02-19 03:41 25.26676 51.61249 26 ft 3 kts 248°
2026-02-19 03:41 25.26684 51.61270 27 ft 3 kts 248°
2026-02-19 03:41 25.26691 51.61290 26 ft 3 kts 245°
2026-02-19 03:42 25.26700 51.61309 25 ft 3 kts 233°
2026-02-19 03:42 25.26713 51.61325 24 ft 3 kts 220°
2026-02-19 03:42 25.26728 51.61338 24 ft 3 kts 208°
2026-02-19 03:42 25.26746 51.61348 25 ft 3 kts 202°
2026-02-19 03:43 25.26764 51.61356 25 ft 2 kts 202°
2026-02-19 03:43 25.26768 51.61357 25 ft 0 kts 203°
2026-02-19 03:45 25.26755 51.61351 25 ft 10 kts 203°
2026-02-19 03:45 25.26632 51.61361 27 ft 26 kts 159°
2026-02-19 03:45 25.26445 51.61442 27 ft 29 kts 155°
2026-02-19 03:46 25.26407 51.61638 27 ft 29 kts 60°
2026-02-19 03:46 25.26503 51.61834 27 ft 29 kts 67°
2026-02-19 03:46 25.26481 51.61968 27 ft 17 kts 155°
2026-02-19 03:46 25.26318 51.62046 27 ft 34 kts 157°
2026-02-19 03:47 25.26051 51.62160 27 ft 49 kts 159°
2026-02-19 03:47 25.25703 51.62317 27 ft 58 kts 159°
2026-02-19 03:47 25.25477 51.62432 27 ft 13 kts 117°
2026-02-19 03:47 25.25504 51.62550 27 ft 27 kts 69°
2026-02-19 03:48 25.25580 51.62689 28 ft 2 kts 14°
2026-02-19 03:48 25.25651 51.62653 28 ft 25 kts 335°
2026-02-19 03:48 25.26024 51.62487 27 ft 91 kts 338°
2026-02-19 03:49 25.27896 51.61659 37 ft 189 kts 338°
2026-02-19 03:49 25.29152 51.61097 328 ft 200 kts 338°
2026-02-19 03:49 25.30450 51.60523 830 ft 202 kts 339°
2026-02-19 03:49 25.31045 51.60259 1044 ft 205 kts 339°
2026-02-19 03:50 25.32063 51.59804 1413 ft 208 kts 339°
2026-02-19 03:50 25.33439 51.59303 1836 ft 211 kts 359°
2026-02-19 03:50 25.34851 51.59695 2209 ft 215 kts 37°
2026-02-19 03:50 25.35767 51.60982 2641 ft 218 kts 74°
2026-02-19 03:51 25.36291 51.62605 2867 ft 235 kts 61°
2026-02-19 03:51 25.37022 51.64288 3095 ft 251 kts 80°
2026-02-19 03:51 25.37018 51.66232 3572 ft 257 kts 95°
2026-02-19 03:51 25.36929 51.68237 4243 ft 264 kts 91°
2026-02-19 03:52 25.36885 51.70266 5033 ft 264 kts 97°
2026-02-19 03:52 25.36558 51.72279 5732 ft 268 kts 103°
2026-02-19 03:52 25.36122 51.74290 6519 ft 270 kts 104°
2026-02-19 03:53 25.35249 51.78371 7917 ft 277 kts 103°
2026-02-19 03:53 25.34824 51.80462 8600 ft 281 kts 102°
2026-02-19 03:53 25.34397 51.82590 9310 ft 285 kts 102°
2026-02-19 03:53 25.33969 51.84735 10014 ft 288 kts 102°
2026-02-19 03:54 25.33534 51.86923 10564 ft 297 kts 102°
2026-02-19 03:54 25.33072 51.89243 10736 ft 320 kts 102°
2026-02-19 03:54 25.32578 51.91727 10919 ft 343 kts 102°
2026-02-19 03:54 25.32050 51.94379 11097 ft 364 kts 102°
2026-02-19 03:55 25.31495 51.97155 11598 ft 374 kts 102°
2026-02-19 03:55 25.30929 51.99988 12244 ft 380 kts 101°
2026-02-19 03:55 25.30356 52.02854 12977 ft 383 kts 101°
2026-02-19 03:55 25.29780 52.05733 13727 ft 386 kts 101°
2026-02-19 03:56 25.29160 52.08617 14328 ft 388 kts 106°
2026-02-19 03:56 25.27927 52.11294 14734 ft 397 kts 126°
2026-02-19 03:56 25.26149 52.13647 15190 ft 402 kts 128°
2026-02-19 03:57 25.22590 52.18495 16429 ft 409 kts 127°
2026-02-19 03:57 25.20815 52.20963 17048 ft 412 kts 127°
2026-02-19 03:57 25.19025 52.23461 17642 ft 417 kts 127°
2026-02-19 03:57 25.17218 52.25983 18221 ft 421 kts 127°
2026-02-19 03:58 25.15391 52.28532 18755 ft 425 kts 127°
2026-02-19 03:58 25.13549 52.31098 19271 ft 428 kts 127°
2026-02-19 03:58 25.11689 52.33686 19791 ft 431 kts 128°
2026-02-19 03:58 25.09821 52.36290 20297 ft 435 kts 128°
2026-02-19 03:59 25.07937 52.38916 20796 ft 438 kts 128°
2026-02-19 03:59 25.06041 52.41560 21309 ft 441 kts 128°
2026-02-19 03:59 25.04134 52.44218 21792 ft 444 kts 128°
2026-02-19 03:59 25.02205 52.46903 22234 ft 448 kts 129°
2026-02-19 04:00 25.00408 52.49716 22621 ft 452 kts 118°
2026-02-19 04:00 24.99292 52.52965 22958 ft 456 kts 107°
2026-02-19 04:00 24.98410 52.56333 23349 ft 460 kts 107°
2026-02-19 04:01 24.96525 52.63115 24137 ft 465 kts 109°
2026-02-19 04:01 24.95513 52.66517 24492 ft 468 kts 109°
2026-02-19 04:01 24.94537 52.69946 24833 ft 471 kts 107°
2026-02-19 04:01 24.93657 52.73441 25163 ft 475 kts 106°
2026-02-19 04:02 24.92809 52.76966 25505 ft 478 kts 105°
2026-02-19 04:02 24.91965 52.80521 25840 ft 481 kts 105°
2026-02-19 04:02 24.91116 52.84088 26179 ft 483 kts 106°
2026-02-19 04:02 24.90253 52.87678 26509 ft 486 kts 106°
2026-02-19 04:03 24.89378 52.91288 26841 ft 489 kts 106°
2026-02-19 04:03 24.88494 52.94912 27163 ft 492 kts 106°
2026-02-19 04:03 24.87600 52.98563 27474 ft 495 kts 106°
2026-02-19 04:03 24.86701 53.02226 27785 ft 497 kts 107°
2026-02-19 04:04 24.85794 53.05919 28079 ft 500 kts 107°
2026-02-19 04:04 24.84897 53.09576 28369 ft 503 kts 107°
2026-02-19 04:04 24.83982 53.13300 28642 ft 505 kts 107°
2026-02-19 04:05 24.82135 53.20801 29183 ft 510 kts 107°
2026-02-19 04:05 24.81204 53.24578 29439 ft 513 kts 107°
2026-02-19 04:05 24.80268 53.28371 29742 ft 513 kts 107°
2026-02-19 04:05 24.79333 53.32156 30142 ft 512 kts 107°
2026-02-19 04:06 24.78397 53.35935 30488 ft 511 kts 107°
2026-02-19 04:06 24.77461 53.39708 30798 ft 511 kts 107°
2026-02-19 04:06 24.76523 53.43482 31083 ft 512 kts 107°
2026-02-19 04:06 24.75583 53.47261 31381 ft 511 kts 107°
2026-02-19 04:07 24.74644 53.51031 31690 ft 511 kts 106°
2026-02-19 04:07 24.72765 53.58568 32279 ft 511 kts 106°
2026-02-19 04:07 24.71826 53.62329 32572 ft 510 kts 106°
2026-02-19 04:08 24.69943 53.69856 33037 ft 512 kts 106°
2026-02-19 04:09 24.67101 53.81184 33088 ft 509 kts 106°
2026-02-19 04:09 24.65220 53.88664 33107 ft 506 kts 106°
2026-02-19 04:10 24.63354 53.96119 33105 ft 505 kts 105°
2026-02-19 04:10 24.61677 54.03619 33106 ft 506 kts 104°
2026-02-19 04:11 24.60046 54.11145 33104 ft 507 kts 104°
2026-02-19 04:11 24.58388 54.18626 33103 ft 508 kts 104°
2026-02-19 04:12 24.56686 54.26220 33104 ft 509 kts 104°
2026-02-19 04:12 24.55337 54.32494 33098 ft 509 kts 99°
2026-02-19 04:13 24.55540 54.41496 33112 ft 510 kts 78°
2026-02-19 04:13 24.56538 54.45281 33108 ft 509 kts 69°
2026-02-19 04:13 24.58605 54.51343 33106 ft 510 kts 69°
2026-02-19 04:14 24.61000 54.58689 33107 ft 511 kts 70°
2026-02-19 04:14 24.63328 54.66071 33104 ft 512 kts 70°
2026-02-19 04:15 24.65677 54.73455 33106 ft 512 kts 70°
2026-02-19 04:15 24.68023 54.80843 33108 ft 511 kts 70°
2026-02-19 04:16 24.70096 54.88312 33112 ft 511 kts 75°
2026-02-19 04:17 24.72800 54.99645 33121 ft 511 kts 75°
2026-02-19 04:17 24.74611 55.07198 33128 ft 511 kts 75°
2026-02-19 04:18 24.76437 55.14744 33130 ft 511 kts 75°
2026-02-19 04:18 24.78253 55.22252 33130 ft 511 kts 75°
2026-02-19 04:19 24.80085 55.29856 33133 ft 511 kts 75°
2026-02-19 04:19 24.81901 55.37413 33131 ft 511 kts 75°
2026-02-19 04:20 24.83715 55.44983 33132 ft 511 kts 75°
2026-02-19 04:20 24.85513 55.52498 33130 ft 511 kts 75°
2026-02-19 04:21 24.88106 55.63893 33129 ft 511 kts 77°
2026-02-19 04:21 24.89726 55.71520 33133 ft 512 kts 77°
2026-02-19 04:22 24.91360 55.79152 33131 ft 512 kts 77°
2026-02-19 04:22 24.93004 55.86780 33130 ft 512 kts 77°
2026-02-19 04:23 24.94646 55.94407 33133 ft 512 kts 77°
2026-02-19 04:23 24.96283 56.02040 33129 ft 512 kts 77°
2026-02-19 04:24 24.98064 56.09641 33127 ft 512 kts 72°
2026-02-19 04:25 25.01407 56.20822 33136 ft 512 kts 72°
2026-02-19 04:25 25.03591 56.28285 33136 ft 512 kts 73°
2026-02-19 04:26 25.05212 56.35944 33145 ft 516 kts 79°
2026-02-19 04:26 25.06565 56.43787 33144 ft 522 kts 79°
2026-02-19 04:27 25.07615 56.51693 33135 ft 521 kts 89°
2026-02-19 04:27 25.07209 56.59641 33132 ft 519 kts 101°
2026-02-19 04:28 25.05715 56.67401 33125 ft 517 kts 104°
2026-02-19 04:28 25.04165 56.75157 33128 ft 517 kts 103°
2026-02-19 04:29 25.01939 56.86787 33133 ft 517 kts 103°
2026-02-19 04:29 25.00476 56.94479 33136 ft 516 kts 103°
2026-02-19 04:30 24.98995 57.02212 33135 ft 516 kts 103°
2026-02-19 04:30 24.97499 57.09953 33138 ft 516 kts 103°
2026-02-19 04:31 24.96000 57.17681 33138 ft 516 kts 103°
2026-02-19 04:31 24.94499 57.25406 33137 ft 516 kts 103°
2026-02-19 04:32 24.92995 57.33133 33139 ft 516 kts 103°
2026-02-19 04:33 24.89973 57.48585 33141 ft 516 kts 103°
2026-02-19 04:33 24.88456 57.56305 33143 ft 516 kts 103°
2026-02-19 04:34 24.86936 57.64026 33142 ft 516 kts 103°
2026-02-19 04:34 24.85411 57.71747 33140 ft 516 kts 103°
2026-02-19 04:35 24.83885 57.79454 33137 ft 515 kts 103°
2026-02-19 04:35 24.82802 57.87252 33139 ft 516 kts 96°
2026-02-19 04:36 24.82213 57.95129 33139 ft 516 kts 95°
2026-02-19 04:37 24.81318 58.06940 33141 ft 516 kts 96°
2026-02-19 04:37 24.80682 58.14758 33140 ft 517 kts 96°
2026-02-19 04:38 24.80030 58.22633 33140 ft 517 kts 96°
2026-02-19 04:38 24.79375 58.30505 33140 ft 517 kts 96°
2026-02-19 04:39 24.78717 58.38381 33136 ft 517 kts 96°
2026-02-19 04:39 24.78056 58.46257 33135 ft 517 kts 96°
2026-02-19 04:40 24.77391 58.54130 33138 ft 517 kts 96°
2026-02-19 04:40 24.76721 58.62007 33135 ft 517 kts 96°
2026-02-19 04:41 24.75709 58.73811 33139 ft 517 kts 96°
2026-02-19 04:41 24.75030 58.81682 33138 ft 517 kts 96°
2026-02-19 04:42 24.74346 58.89551 33139 ft 517 kts 96°
2026-02-19 04:42 24.73658 58.97420 33136 ft 517 kts 96°
2026-02-19 04:43 24.72968 59.05277 33136 ft 517 kts 96°
2026-02-19 04:43 24.72276 59.13099 33135 ft 517 kts 96°
2026-02-19 04:44 24.71576 59.20964 33137 ft 517 kts 96°
2026-02-19 04:45 24.70518 59.32762 33138 ft 517 kts 96°
2026-02-19 04:45 24.69808 59.40632 33136 ft 517 kts 97°
2026-02-19 04:46 24.69095 59.48497 33136 ft 517 kts 97°
2026-02-19 04:46 24.68376 59.56369 33137 ft 517 kts 97°
2026-02-19 04:47 24.67654 59.64232 33136 ft 517 kts 97°
2026-02-19 04:47 24.66928 59.72097 33133 ft 517 kts 97°
2026-02-19 04:48 24.66197 59.79964 33137 ft 517 kts 97°
2026-02-19 04:48 24.65462 59.87833 33135 ft 517 kts 97°
2026-02-19 04:49 24.64352 59.99630 33135 ft 517 kts 97°
2026-02-19 04:49 24.63607 60.07493 33134 ft 517 kts 97°
2026-02-19 04:50 24.62858 60.15360 33131 ft 517 kts 97°
2026-02-19 04:50 24.62105 60.23219 33130 ft 517 kts 97°
2026-02-19 04:51 24.61353 60.31024 33130 ft 517 kts 97°
2026-02-19 04:51 24.60592 60.38880 33131 ft 517 kts 97°
2026-02-19 04:52 24.59828 60.46732 33130 ft 517 kts 97°
2026-02-19 04:53 24.58673 60.58518 33128 ft 517 kts 97°
2026-02-19 04:53 24.58207 60.66405 33130 ft 518 kts 91°
2026-02-19 04:54 24.58249 60.74320 33122 ft 518 kts 90°
2026-02-19 04:54 24.58299 60.82237 33128 ft 519 kts 90°
2026-02-19 04:55 24.58306 60.90163 33127 ft 519 kts 90°
2026-02-19 04:55 24.58293 60.98088 33127 ft 519 kts 91°
2026-02-19 04:56 24.58277 61.06019 33120 ft 519 kts 91°
2026-02-19 04:56 24.58259 61.13950 33126 ft 519 kts 90°
2026-02-19 04:57 24.58227 61.25854 33124 ft 519 kts 90°
2026-02-19 04:57 24.58905 61.33737 33130 ft 519 kts 78°
2026-02-19 04:58 24.60933 61.41333 33126 ft 518 kts 68°
2026-02-19 04:58 24.63620 61.48694 33124 ft 519 kts 67°
2026-02-19 04:59 24.66322 61.56050 33124 ft 519 kts 68°
2026-02-19 04:59 24.68980 61.63428 33125 ft 520 kts 68°
2026-02-19 05:00 24.71616 61.70835 33123 ft 520 kts 68°
2026-02-19 05:01 24.76872 61.85659 33122 ft 520 kts 68°
2026-02-19 05:01 24.79499 61.93077 33121 ft 521 kts 68°
2026-02-19 05:02 24.82106 62.00452 33128 ft 521 kts 68°
2026-02-19 05:02 24.84730 62.07890 33118 ft 521 kts 68°
2026-02-19 05:03 24.86924 62.14119 33124 ft 521 kts 68°
2026-02-19 05:03 24.89541 62.21560 33123 ft 521 kts 68°
2026-02-19 05:04 24.92156 62.29009 33127 ft 521 kts 68°
2026-02-19 05:05 24.96071 62.40191 33121 ft 522 kts 68°
2026-02-19 05:05 24.98660 62.47601 33123 ft 522 kts 68°
2026-02-19 05:06 25.01263 62.55064 33121 ft 522 kts 68°
2026-02-19 05:06 25.03863 62.62533 33126 ft 522 kts 68°
2026-02-19 05:07 25.07754 62.73738 33123 ft 522 kts 68°
2026-02-19 05:07 25.10347 62.81222 33127 ft 522 kts 68°
2026-02-19 05:08 25.12933 62.88699 33126 ft 522 kts 68°
2026-02-19 05:09 25.16810 62.99936 33126 ft 522 kts 68°
2026-02-19 05:09 25.19391 63.07437 33124 ft 522 kts 68°
2026-02-19 05:10 25.21984 63.14985 33125 ft 523 kts 68°
2026-02-19 05:10 25.24560 63.22498 33125 ft 523 kts 68°
2026-02-19 05:11 25.27174 63.29921 33112 ft 519 kts 61°
2026-02-19 05:11 25.29176 63.33275 33126 ft 514 kts 45°
2026-02-19 05:11 25.31726 63.35923 33140 ft 509 kts 33°
2026-02-19 05:11 25.34730 63.37929 33118 ft 501 kts 19°
2026-02-19 05:12 25.37955 63.39364 33158 ft 500 kts 18°
2026-02-19 05:12 25.44439 63.42254 33142 ft 505 kts 19°
2026-02-19 05:13 25.54226 63.46798 33135 ft 510 kts 19°
2026-02-19 05:13 25.60759 63.49878 33132 ft 510 kts 19°
2026-02-19 05:14 25.67287 63.52956 33143 ft 508 kts 19°
2026-02-19 05:14 25.73789 63.56018 33143 ft 506 kts 19°
2026-02-19 05:15 25.80254 63.59066 33151 ft 504 kts 19°
2026-02-19 05:15 25.86704 63.62110 33156 ft 503 kts 19°
2026-02-19 05:16 25.93088 63.65128 33163 ft 502 kts 19°
2026-02-19 05:17 26.02773 63.69708 33172 ft 502 kts 19°
2026-02-19 05:17 26.09165 63.72721 33174 ft 503 kts 19°
2026-02-19 05:18 26.15607 63.75759 33181 ft 504 kts 19°
2026-02-19 05:18 26.22063 63.78810 33181 ft 504 kts 19°
2026-02-19 05:19 26.28523 63.81868 33190 ft 505 kts 19°
2026-02-19 05:19 26.34996 63.84936 33189 ft 505 kts 19°
2026-02-19 05:20 26.41464 63.88005 33191 ft 505 kts 19°
2026-02-19 05:20 26.47926 63.91076 33198 ft 505 kts 19°
2026-02-19 05:21 26.57608 63.95682 33204 ft 504 kts 19°
2026-02-19 05:21 26.64040 63.98747 33199 ft 504 kts 19°
2026-02-19 05:22 26.70497 64.01829 33203 ft 503 kts 20°
2026-02-19 05:22 26.76934 64.04903 33209 ft 503 kts 20°
2026-02-19 05:23 26.83371 64.07983 33209 ft 503 kts 20°
2026-02-19 05:23 26.89807 64.11066 33212 ft 503 kts 20°
2026-02-19 05:24 26.95903 64.14981 33211 ft 509 kts 33°
2026-02-19 05:25 27.03673 64.23081 33224 ft 513 kts 43°
2026-02-19 05:25 27.08612 64.28868 33216 ft 513 kts 43°
2026-02-19 05:26 27.13572 64.34627 33217 ft 513 kts 43°
2026-02-19 05:26 27.18562 64.40370 33219 ft 514 kts 43°
2026-02-19 05:27 27.23557 64.46108 33221 ft 514 kts 43°
2026-02-19 05:27 27.28543 64.51848 33219 ft 513 kts 43°
2026-02-19 05:28 27.33526 64.57595 33225 ft 513 kts 43°
2026-02-19 05:28 27.38499 64.63340 33224 ft 513 kts 43°
2026-02-19 05:29 27.45959 64.71974 33222 ft 513 kts 43°
2026-02-19 05:29 27.50927 64.77733 33221 ft 513 kts 43°
2026-02-19 05:30 27.55899 64.83504 33219 ft 513 kts 43°
2026-02-19 05:30 27.60830 64.89237 33221 ft 513 kts 43°
2026-02-19 05:31 27.65795 64.95016 33198 ft 513 kts 43°
2026-02-19 05:31 27.70756 65.00798 33226 ft 513 kts 43°
2026-02-19 05:32 27.75715 65.06587 33224 ft 513 kts 43°
2026-02-19 05:33 27.83143 65.15273 33225 ft 512 kts 43°
2026-02-19 05:33 27.88087 65.21065 33229 ft 512 kts 43°
2026-02-19 05:34 27.93029 65.26862 33212 ft 512 kts 44°
2026-02-19 05:34 27.97968 65.32665 33214 ft 512 kts 44°
2026-02-19 05:35 28.02908 65.38478 33219 ft 512 kts 44°
2026-02-19 05:35 28.07848 65.44296 33221 ft 512 kts 44°
2026-02-19 05:36 28.12786 65.50113 33224 ft 512 kts 44°
2026-02-19 05:36 28.17725 65.55938 33224 ft 512 kts 44°
2026-02-19 05:37 28.25124 65.64685 33219 ft 512 kts 44°
2026-02-19 05:37 28.30049 65.70518 33238 ft 512 kts 44°
2026-02-19 05:38 28.34973 65.76358 33226 ft 512 kts 44°
2026-02-19 05:39 28.42320 65.85085 33236 ft 512 kts 44°
2026-02-19 05:39 28.47236 65.90937 33241 ft 512 kts 44°
2026-02-19 05:40 28.52147 65.96792 33243 ft 512 kts 44°
2026-02-19 05:40 28.57053 66.02647 33240 ft 512 kts 44°
2026-02-19 05:41 28.64420 66.11458 33253 ft 512 kts 44°
2026-02-19 05:41 28.69329 66.17338 33249 ft 512 kts 44°
2026-02-19 05:42 28.74240 66.23230 33256 ft 513 kts 44°
2026-02-19 05:42 28.79152 66.29133 33254 ft 513 kts 44°
2026-02-19 05:43 28.84062 66.35040 33257 ft 514 kts 44°
2026-02-19 05:43 28.88980 66.40967 33257 ft 514 kts 44°
2026-02-19 05:44 28.93898 66.46903 33256 ft 515 kts 44°
2026-02-19 05:45 29.01279 66.55828 33254 ft 516 kts 44°
2026-02-19 05:45 29.06209 66.61794 33259 ft 516 kts 43°
2026-02-19 05:46 29.11147 66.67758 33255 ft 517 kts 43°
2026-02-19 05:46 29.16087 66.73732 33258 ft 517 kts 43°
2026-02-19 05:47 29.21026 66.79719 33250 ft 517 kts 43°
2026-02-19 05:47 29.25966 66.85718 33248 ft 518 kts 43°
2026-02-19 05:48 29.30905 66.91723 33247 ft 517 kts 43°
2026-02-19 05:48 29.35834 66.97728 33211 ft 517 kts 43°
2026-02-19 05:49 29.43184 67.06694 33232 ft 517 kts 43°
2026-02-19 05:49 29.48104 67.12709 33225 ft 517 kts 43°
2026-02-19 05:50 29.53027 67.18737 33199 ft 518 kts 43°
2026-02-19 05:50 29.57951 67.24775 33189 ft 517 kts 43°
2026-02-19 05:51 29.62869 67.30815 33187 ft 517 kts 43°
2026-02-19 05:51 29.67784 67.36861 33184 ft 517 kts 43°
2026-02-19 05:52 29.71897 67.41928 33180 ft 517 kts 43°
2026-02-19 05:53 29.79237 67.50959 33170 ft 518 kts 42°
2026-02-19 05:53 29.84160 67.57012 33181 ft 518 kts 42°
2026-02-19 05:54 29.89082 67.63075 33169 ft 518 kts 42°
2026-02-19 05:54 29.94007 67.69153 33178 ft 518 kts 42°
2026-02-19 05:55 29.98923 67.75232 33179 ft 518 kts 42°
2026-02-19 05:55 30.03841 67.81322 33188 ft 519 kts 42°
2026-02-19 05:56 30.08755 67.87417 33196 ft 519 kts 42°
2026-02-19 05:56 30.13711 67.93477 33194 ft 518 kts 41°
2026-02-19 05:57 30.21163 68.02515 33201 ft 518 kts 41°
2026-02-19 05:57 30.26118 68.08564 33229 ft 517 kts 41°
2026-02-19 05:58 30.31057 68.14629 33221 ft 518 kts 41°
2026-02-19 05:58 30.35978 68.20718 33244 ft 518 kts 41°
2026-02-19 05:59 30.40897 68.26817 33233 ft 518 kts 41°
2026-02-19 05:59 30.45812 68.32915 33237 ft 518 kts 41°
2026-02-19 06:00 30.50724 68.39016 33238 ft 517 kts 41°
2026-02-19 06:01 30.58089 68.48178 33237 ft 517 kts 41°
2026-02-19 06:01 30.62955 68.54246 33235 ft 517 kts 41°
2026-02-19 06:02 30.67847 68.60356 33240 ft 516 kts 41°
2026-02-19 06:02 30.72733 68.66468 33237 ft 516 kts 41°
2026-02-19 06:03 30.77612 68.72581 33243 ft 515 kts 41°
2026-02-19 06:03 30.82485 68.78695 33245 ft 515 kts 40°
2026-02-19 06:04 30.87356 68.84817 33248 ft 515 kts 40°
2026-02-19 06:04 30.92218 68.90938 33244 ft 515 kts 40°
2026-02-19 06:05 30.99494 69.00116 33256 ft 513 kts 40°
2026-02-19 06:05 31.04343 69.06246 33236 ft 515 kts 40°
2026-02-19 06:06 31.09193 69.12384 33249 ft 515 kts 40°
2026-02-19 06:06 31.14043 69.18535 33243 ft 515 kts 40°
2026-02-19 06:07 31.18893 69.24700 33228 ft 515 kts 40°
2026-02-19 06:07 31.23741 69.30866 33237 ft 515 kts 40°
2026-02-19 06:08 31.28580 69.37033 33238 ft 515 kts 40°
2026-02-19 06:09 31.36042 69.45881 33238 ft 504 kts 31°
2026-02-19 06:09 31.41735 69.50470 33237 ft 493 kts 23°
2026-02-19 06:10 31.47631 69.54554 33227 ft 492 kts 22°
2026-02-19 06:10 31.53520 69.58652 33230 ft 492 kts 23°
2026-02-19 06:11 31.59391 69.62786 33230 ft 492 kts 23°
2026-02-19 06:11 31.65252 69.66942 33224 ft 492 kts 23°
2026-02-19 06:12 31.71113 69.71106 33219 ft 492 kts 23°
2026-02-19 06:12 31.76967 69.75266 33213 ft 491 kts 23°
2026-02-19 06:13 31.85722 69.81502 33201 ft 489 kts 23°
2026-02-19 06:13 31.91543 69.85652 33210 ft 489 kts 23°
2026-02-19 06:14 31.97365 69.89813 33188 ft 489 kts 23°
2026-02-19 06:14 32.03163 69.93962 33207 ft 487 kts 23°
2026-02-19 06:15 32.08955 69.98113 33192 ft 487 kts 23°
2026-02-19 06:15 32.14748 70.02266 33195 ft 487 kts 23°
2026-02-19 06:16 32.20536 70.06429 33196 ft 487 kts 23°
2026-02-19 06:17 32.29178 70.12650 33189 ft 488 kts 23°
2026-02-19 06:17 32.34972 70.16836 33183 ft 489 kts 23°
2026-02-19 06:18 32.40799 70.20981 33166 ft 488 kts 22°
2026-02-19 06:18 32.46658 70.25038 33178 ft 488 kts 22°
2026-02-19 06:19 32.52509 70.29099 33182 ft 487 kts 22°
2026-02-19 06:19 32.58330 70.33171 33185 ft 485 kts 22°
2026-02-19 06:20 32.64133 70.37232 33185 ft 484 kts 22°
2026-02-19 06:20 32.69858 70.41493 33180 ft 486 kts 25°
2026-02-19 06:21 32.78361 70.48049 33179 ft 486 kts 25°
2026-02-19 06:21 32.84055 70.52394 33178 ft 486 kts 25°
2026-02-19 06:22 32.89754 70.56736 33174 ft 486 kts 25°
2026-02-19 06:22 32.95455 70.61074 33177 ft 486 kts 24°
2026-02-19 06:23 33.01192 70.65318 33173 ft 485 kts 24°
2026-02-19 06:23 33.06933 70.69542 33175 ft 485 kts 24°
2026-02-19 06:24 33.12656 70.73778 33171 ft 484 kts 24°
2026-02-19 06:25 33.21223 70.80145 33184 ft 484 kts 24°
2026-02-19 06:25 33.26937 70.84399 33176 ft 484 kts 25°
2026-02-19 06:26 33.32611 70.88634 33178 ft 484 kts 25°
2026-02-19 06:26 33.38316 70.92898 33183 ft 484 kts 25°
2026-02-19 06:27 33.44018 70.97164 33178 ft 484 kts 25°
2026-02-19 06:27 33.49655 71.01606 33184 ft 488 kts 31°
2026-02-19 06:28 33.54855 71.06911 33186 ft 491 kts 34°
2026-02-19 06:28 33.59992 71.12315 33192 ft 491 kts 34°
2026-02-19 06:29 33.67736 71.20381 33185 ft 491 kts 34°
2026-02-19 06:29 33.72903 71.25740 33186 ft 490 kts 34°
2026-02-19 06:30 33.78061 71.31097 33189 ft 489 kts 35°
2026-02-19 06:30 33.83208 71.36454 33191 ft 490 kts 35°
2026-02-19 06:31 33.88352 71.41819 33184 ft 490 kts 35°
2026-02-19 06:31 33.93493 71.47192 33185 ft 489 kts 35°
2026-02-19 06:32 33.98555 71.52672 33190 ft 492 kts 40°
2026-02-19 06:33 34.05319 71.62063 33189 ft 495 kts 44°
2026-02-19 06:33 34.09739 71.68345 33195 ft 494 kts 44°
2026-02-19 06:34 34.14207 71.74639 33179 ft 494 kts 44°
2026-02-19 06:34 34.18687 71.80928 33179 ft 493 kts 44°
2026-02-19 06:35 34.23159 71.87211 33180 ft 493 kts 44°
2026-02-19 06:35 34.27624 71.93499 33177 ft 493 kts 44°
2026-02-19 06:36 34.32075 71.99782 33184 ft 492 kts 44°
2026-02-19 06:36 34.36523 72.06070 33178 ft 492 kts 44°
2026-02-19 06:37 34.43186 72.15512 33182 ft 491 kts 44°
2026-02-19 06:37 34.47615 72.21802 33188 ft 491 kts 45°
2026-02-19 06:38 34.52039 72.28100 33167 ft 490 kts 45°
2026-02-19 06:38 34.56451 72.34386 33176 ft 489 kts 45°
2026-02-19 06:39 34.60853 72.40669 33149 ft 487 kts 45°
2026-02-19 06:39 34.65199 72.46891 33195 ft 486 kts 45°
2026-02-19 06:40 34.69615 72.53215 33191 ft 488 kts 45°
2026-02-19 06:41 34.76139 72.62586 33202 ft 486 kts 45°
2026-02-19 06:41 34.79806 72.67865 33180 ft 488 kts 45°
2026-02-19 06:42 34.84187 72.74181 33196 ft 489 kts 45°
2026-02-19 06:42 34.89296 72.81562 33209 ft 491 kts 45°
2026-02-19 06:43 34.92972 72.86887 33190 ft 489 kts 46°
2026-02-19 06:43 34.97341 72.93223 33232 ft 487 kts 46°
2026-02-19 06:44 35.01686 72.99535 33260 ft 485 kts 46°
2026-02-19 06:44 35.06020 73.05843 33275 ft 485 kts 46°
2026-02-19 06:45 35.12507 73.15310 33286 ft 484 kts 46°
2026-02-19 06:45 35.16793 73.21583 33299 ft 485 kts 46°
2026-02-19 06:46 35.21110 73.27911 33326 ft 484 kts 46°
2026-02-19 06:46 35.25422 73.34237 33333 ft 484 kts 46°
2026-02-19 06:47 35.29738 73.40586 33336 ft 486 kts 46°
2026-02-19 06:47 35.34052 73.46945 33338 ft 485 kts 46°
2026-02-19 06:48 35.38360 73.53304 33332 ft 485 kts 46°
2026-02-19 06:49 35.44815 73.62856 33362 ft 484 kts 47°
2026-02-19 06:49 35.49109 73.69223 33373 ft 485 kts 47°
2026-02-19 06:50 35.53407 73.75610 33378 ft 484 kts 47°
2026-02-19 06:50 35.57690 73.81988 33361 ft 484 kts 47°
2026-02-19 06:51 35.61966 73.88364 33387 ft 483 kts 47°
2026-02-19 06:51 35.66238 73.94743 33377 ft 483 kts 47°
2026-02-19 06:52 35.70502 74.01129 33384 ft 483 kts 47°
2026-02-19 06:52 35.74769 74.07528 33397 ft 483 kts 47°
2026-02-19 06:53 35.81161 74.17141 33407 ft 484 kts 47°
2026-02-19 06:53 35.85422 74.23561 33410 ft 484 kts 47°
2026-02-19 06:54 35.89687 74.29998 33415 ft 485 kts 47°
2026-02-19 06:54 35.94291 74.36021 33452 ft 481 kts 37°
2026-02-19 06:55 35.96859 74.38667 33710 ft 481 kts 36°
2026-02-19 06:55 35.99444 74.41293 34128 ft 479 kts 36°
2026-02-19 06:55 36.01979 74.43867 34502 ft 478 kts 36°
2026-02-19 06:55 36.04539 74.46483 34799 ft 477 kts 36°
2026-02-19 06:56 36.07087 74.49101 35055 ft 478 kts 36°
2026-02-19 06:56 36.09643 74.51743 35300 ft 479 kts 36°
2026-02-19 06:57 36.17321 74.59721 35414 ft 480 kts 36°
2026-02-19 06:57 36.22420 74.65032 35416 ft 478 kts 36°
2026-02-19 06:58 36.27503 74.70335 35420 ft 477 kts 36°
2026-02-19 06:58 36.32576 74.75638 35422 ft 476 kts 36°
2026-02-19 06:59 36.37633 74.80929 35435 ft 475 kts 36°
2026-02-19 06:59 36.42685 74.86231 35449 ft 476 kts 36°
2026-02-19 07:00 36.47743 74.91542 35461 ft 477 kts 36°
2026-02-19 07:00 36.52814 74.96883 35463 ft 476 kts 36°
2026-02-19 07:01 36.60406 75.04887 35465 ft 477 kts 36°
2026-02-19 07:01 36.65470 75.10237 35441 ft 478 kts 36°
2026-02-19 07:02 36.70543 75.15612 35427 ft 479 kts 36°
2026-02-19 07:02 36.75609 75.20989 35415 ft 477 kts 37°
2026-02-19 07:03 36.80659 75.26358 35395 ft 478 kts 37°
2026-02-19 07:03 36.85716 75.31740 35375 ft 477 kts 37°
2026-02-19 07:04 36.90705 75.37102 35354 ft 475 kts 40°
2026-02-19 07:04 36.94134 75.44204 35347 ft 489 kts 70°
2026-02-19 07:05 36.94728 75.48400 35319 ft 493 kts 84°
2026-02-19 07:05 36.94982 75.57041 35312 ft 496 kts 85°
2026-02-19 07:06 36.95203 75.65636 35307 ft 500 kts 85°
2026-02-19 07:06 36.95486 75.74339 35303 ft 501 kts 84°
2026-02-19 07:07 36.95803 75.83048 35294 ft 502 kts 84°
2026-02-19 07:07 36.96124 75.91754 35282 ft 501 kts 84°
2026-02-19 07:08 36.96433 76.00432 35296 ft 497 kts 84°
2026-02-19 07:08 36.96878 76.13367 35279 ft 495 kts 84°
2026-02-19 07:09 36.97169 76.21948 35276 ft 494 kts 84°
2026-02-19 07:09 36.97450 76.30525 35270 ft 493 kts 84°
2026-02-19 07:10 36.97724 76.39100 35244 ft 494 kts 84°
2026-02-19 07:10 36.97997 76.47679 35238 ft 494 kts 85°
2026-02-19 07:11 36.98261 76.56269 35210 ft 494 kts 85°
2026-02-19 07:11 36.98515 76.64787 35194 ft 494 kts 85°
2026-02-19 07:12 36.98768 76.73366 35159 ft 492 kts 85°
2026-02-19 07:13 36.99133 76.86208 35167 ft 492 kts 85°
2026-02-19 07:13 36.99366 76.94771 35159 ft 493 kts 85°
2026-02-19 07:14 36.99594 77.03344 35155 ft 493 kts 85°
2026-02-19 07:14 36.99816 77.11904 35159 ft 492 kts 85°
2026-02-19 07:15 37.00033 77.20461 35164 ft 492 kts 85°
2026-02-19 07:15 37.00245 77.29019 35175 ft 492 kts 85°
2026-02-19 07:16 37.00449 77.37557 35170 ft 491 kts 85°
2026-02-19 07:16 37.00741 77.50335 35164 ft 489 kts 85°
2026-02-19 07:17 37.00928 77.58829 35172 ft 489 kts 85°
2026-02-19 07:17 37.01110 77.67323 35176 ft 488 kts 86°
2026-02-19 07:18 37.01286 77.75813 35172 ft 487 kts 86°
2026-02-19 07:18 37.01455 77.84288 35182 ft 487 kts 86°
2026-02-19 07:19 37.01619 77.92758 35174 ft 487 kts 86°
2026-02-19 07:19 37.01776 78.01203 35183 ft 485 kts 86°
2026-02-19 07:20 37.01920 78.09637 35177 ft 484 kts 86°
2026-02-19 07:21 37.02138 78.22287 35162 ft 485 kts 86°
2026-02-19 07:21 37.02273 78.30683 35165 ft 486 kts 86°
2026-02-19 07:22 37.02404 78.39139 35176 ft 486 kts 86°
2026-02-19 07:22 37.02528 78.47596 35158 ft 486 kts 86°
2026-02-19 07:23 37.02644 78.56063 35162 ft 487 kts 86°
2026-02-19 07:23 37.02756 78.64528 35164 ft 486 kts 86°
2026-02-19 07:24 37.02862 78.72988 35163 ft 486 kts 86°
2026-02-19 07:24 37.03009 78.85683 35149 ft 487 kts 87°
2026-02-19 07:25 37.03098 78.94139 35154 ft 486 kts 87°
2026-02-19 07:25 37.03184 79.02600 35154 ft 486 kts 87°
2026-02-19 07:26 37.03263 79.11049 35152 ft 485 kts 87°
2026-02-19 07:26 37.03335 79.19438 35162 ft 485 kts 87°
2026-02-19 07:27 37.03401 79.27887 35155 ft 485 kts 87°
2026-02-19 07:27 37.03462 79.36334 35160 ft 485 kts 87°
2026-02-19 07:28 37.03517 79.44785 35158 ft 486 kts 87°
2026-02-19 07:29 37.03587 79.57461 35159 ft 486 kts 87°
2026-02-19 07:29 37.03627 79.65909 35162 ft 485 kts 87°
2026-02-19 07:30 37.03661 79.74353 35161 ft 485 kts 87°
2026-02-19 07:30 37.03706 79.82807 35161 ft 485 kts 85°
2026-02-19 07:31 37.04564 79.91125 35154 ft 481 kts 74°
2026-02-19 07:31 37.06327 79.99182 35164 ft 479 kts 72°
2026-02-19 07:32 37.08132 80.07208 35162 ft 479 kts 72°
2026-02-19 07:32 37.10491 80.17930 35155 ft 479 kts 72°
2026-02-19 07:33 37.12236 80.25992 35160 ft 479 kts 72°
2026-02-19 07:33 37.13970 80.34050 35156 ft 479 kts 72°
2026-02-19 07:34 37.15700 80.42114 35156 ft 479 kts 72°
2026-02-19 07:34 37.17425 80.50176 35157 ft 479 kts 72°
2026-02-19 07:35 37.19142 80.58234 35157 ft 478 kts 73°
2026-02-19 07:35 37.20856 80.66299 35157 ft 478 kts 73°
2026-02-19 07:36 37.22562 80.74363 35156 ft 478 kts 73°
2026-02-19 07:37 37.25110 80.86458 35157 ft 478 kts 73°
2026-02-19 07:37 37.26804 80.94536 35157 ft 478 kts 73°
2026-02-19 07:38 37.28491 81.02610 35157 ft 478 kts 73°
2026-02-19 07:38 37.30171 81.10681 35159 ft 478 kts 73°
2026-02-19 07:39 37.31846 81.18760 35158 ft 478 kts 73°
2026-02-19 07:39 37.33514 81.26833 35160 ft 477 kts 73°
2026-02-19 07:40 37.35177 81.34915 35155 ft 477 kts 73°
2026-02-19 07:40 37.37661 81.47036 35154 ft 477 kts 73°
2026-02-19 07:41 37.39297 81.55060 35156 ft 477 kts 73°
2026-02-19 07:41 37.40936 81.63131 35156 ft 477 kts 73°
2026-02-19 07:42 37.42572 81.71215 35157 ft 476 kts 73°
2026-02-19 07:42 37.44200 81.79291 35153 ft 476 kts 73°
2026-02-19 07:43 37.45823 81.87370 35155 ft 476 kts 73°
2026-02-19 07:43 37.47441 81.95457 35156 ft 476 kts 73°
2026-02-19 07:44 37.49853 82.07572 35150 ft 476 kts 73°
2026-02-19 07:45 37.51454 82.15655 35158 ft 475 kts 73°
2026-02-19 07:45 37.52807 82.22504 35157 ft 475 kts 73°
2026-02-19 07:46 37.54398 82.30590 35154 ft 475 kts 74°
2026-02-19 07:46 37.55981 82.38672 35157 ft 475 kts 73°
2026-02-19 07:47 37.57557 82.46743 35155 ft 475 kts 74°
2026-02-19 07:47 37.59913 82.58869 35157 ft 474 kts 74°
2026-02-19 07:48 37.62253 82.70992 35160 ft 474 kts 74°
2026-02-19 07:49 37.63807 82.79079 35156 ft 474 kts 74°
2026-02-19 07:49 37.65354 82.87161 35156 ft 474 kts 74°
2026-02-19 07:50 37.66895 82.95243 35155 ft 473 kts 74°
2026-02-19 07:50 37.68419 83.03269 35156 ft 473 kts 74°
2026-02-19 07:51 37.69945 83.11340 35159 ft 473 kts 74°
2026-02-19 07:51 37.71467 83.19420 35162 ft 473 kts 74°
2026-02-19 07:52 37.72981 83.27496 35162 ft 472 kts 74°
2026-02-19 07:52 37.75242 83.39601 35158 ft 472 kts 74°
2026-02-19 07:53 37.76746 83.47681 35156 ft 472 kts 74°
2026-02-19 07:53 37.78245 83.55760 35159 ft 472 kts 74°
2026-02-19 07:54 37.79737 83.63839 35157 ft 472 kts 74°
2026-02-19 07:54 37.81222 83.71916 35157 ft 472 kts 74°
2026-02-19 07:55 37.83439 83.84036 35149 ft 471 kts 74°
2026-02-19 07:56 37.84909 83.92117 35162 ft 471 kts 75°
2026-02-19 07:56 37.87105 84.04240 35151 ft 471 kts 75°
2026-02-19 07:57 37.88561 84.12328 35151 ft 471 kts 75°
2026-02-19 07:57 37.90010 84.20409 35169 ft 471 kts 75°
2026-02-19 07:58 37.91454 84.28493 35155 ft 471 kts 75°
2026-02-19 07:58 37.92894 84.36587 35159 ft 471 kts 75°
2026-02-19 07:59 37.94327 84.44679 35163 ft 471 kts 75°
2026-02-19 07:59 37.95754 84.52774 35157 ft 471 kts 75°
2026-02-19 08:00 37.97884 84.64918 35162 ft 471 kts 75°
2026-02-19 08:01 37.99297 84.73021 35160 ft 471 kts 75°
2026-02-19 08:01 38.00705 84.81120 35163 ft 470 kts 75°
2026-02-19 08:02 38.02490 84.89072 35159 ft 467 kts 65°
2026-02-19 08:02 38.05103 84.96528 35167 ft 465 kts 63°
2026-02-19 08:03 38.07767 85.04010 35165 ft 466 kts 63°
2026-02-19 08:03 38.10398 85.11533 35168 ft 466 kts 64°
2026-02-19 08:04 38.13012 85.19080 35163 ft 467 kts 64°
2026-02-19 08:04 38.16923 85.30409 35170 ft 467 kts 64°
2026-02-19 08:05 38.19528 85.37973 35173 ft 468 kts 64°
2026-02-19 08:05 38.21785 85.45747 35169 ft 471 kts 72°
2026-02-19 08:06 38.22985 85.53951 35175 ft 473 kts 79°
2026-02-19 08:06 38.23951 85.62234 35174 ft 473 kts 79°
2026-02-19 08:07 38.24926 85.70518 35170 ft 474 kts 79°
2026-02-19 08:07 38.25922 85.78801 35170 ft 473 kts 78°
2026-02-19 08:08 38.27418 85.91204 35175 ft 473 kts 78°
2026-02-19 08:09 38.28409 85.99478 35175 ft 473 kts 79°
2026-02-19 08:09 38.29392 86.07747 35176 ft 472 kts 79°
2026-02-19 08:10 38.30368 86.16011 35178 ft 472 kts 79°
2026-02-19 08:10 38.31338 86.24274 35177 ft 472 kts 79°
2026-02-19 08:11 38.32302 86.32541 35181 ft 472 kts 79°
2026-02-19 08:11 38.33260 86.40809 35179 ft 472 kts 79°
2026-02-19 08:12 38.34212 86.49074 35179 ft 472 kts 79°
2026-02-19 08:12 38.35630 86.61483 35183 ft 472 kts 79°
2026-02-19 08:13 38.36563 86.69710 35182 ft 472 kts 79°
2026-02-19 08:13 38.37496 86.77993 35185 ft 472 kts 79°
2026-02-19 08:14 38.38423 86.86278 35185 ft 472 kts 79°
2026-02-19 08:14 38.39343 86.94561 35190 ft 472 kts 79°
2026-02-19 08:15 38.40259 87.02858 35189 ft 472 kts 79°
2026-02-19 08:15 38.41169 87.11154 35187 ft 472 kts 79°
2026-02-19 08:16 38.42522 87.23591 35192 ft 472 kts 79°
2026-02-19 08:17 38.43417 87.31892 35190 ft 472 kts 79°
2026-02-19 08:17 38.44305 87.40177 35181 ft 472 kts 79°
2026-02-19 08:18 38.45188 87.48474 35195 ft 472 kts 79°
2026-02-19 08:18 38.46064 87.56768 35192 ft 472 kts 80°
2026-02-19 08:19 38.46934 87.65053 35187 ft 471 kts 80°
2026-02-19 08:19 38.47652 87.71949 35190 ft 472 kts 80°
2026-02-19 08:20 38.48651 87.81591 35185 ft 472 kts 80°
2026-02-19 08:20 38.49930 87.94055 35190 ft 472 kts 80°
2026-02-19 08:21 38.50775 88.02369 35194 ft 472 kts 80°
2026-02-19 08:21 38.51479 88.09338 35173 ft 472 kts 80°
2026-02-19 08:22 38.52307 88.17600 35174 ft 472 kts 80°
2026-02-19 08:22 38.53135 88.25915 35170 ft 472 kts 80°
2026-02-19 08:23 38.53959 88.34244 35168 ft 473 kts 80°
2026-02-19 08:23 38.54775 88.42567 35170 ft 473 kts 81°
2026-02-19 08:24 38.55990 88.55068 35173 ft 473 kts 81°
2026-02-19 08:25 38.56793 88.63397 35175 ft 473 kts 81°
2026-02-19 08:25 38.57614 88.71726 35168 ft 472 kts 78°
2026-02-19 08:26 38.58760 88.79977 35170 ft 471 kts 77°
2026-02-19 08:26 38.59976 88.88202 35178 ft 471 kts 77°
2026-02-19 08:27 38.61173 88.96442 35174 ft 472 kts 77°
2026-02-19 08:27 38.62349 89.04691 35177 ft 472 kts 77°
2026-02-19 08:28 38.63511 89.12952 35171 ft 472 kts 77°
2026-02-19 08:28 38.65246 89.25342 35177 ft 471 kts 77°
2026-02-19 08:29 38.66395 89.33602 35185 ft 472 kts 77°
2026-02-19 08:29 38.67540 89.41864 35177 ft 472 kts 78°
2026-02-19 08:30 38.68677 89.50129 35175 ft 472 kts 78°
2026-02-19 08:30 38.69810 89.58406 35176 ft 472 kts 78°
2026-02-19 08:31 38.70935 89.66669 35172 ft 472 kts 78°
2026-02-19 08:31 38.72056 89.74946 35174 ft 472 kts 78°
2026-02-19 08:32 38.73727 89.87368 35169 ft 472 kts 78°
2026-02-19 08:33 38.74834 89.95654 35163 ft 472 kts 78°
2026-02-19 08:33 38.75935 90.03947 35162 ft 472 kts 78°
2026-02-19 08:34 38.77032 90.12252 35166 ft 472 kts 78°
2026-02-19 08:34 38.78121 90.20548 35159 ft 472 kts 78°
2026-02-19 08:35 38.79199 90.28800 35165 ft 473 kts 78°
2026-02-19 08:35 38.80279 90.37116 35168 ft 473 kts 78°
2026-02-19 08:36 38.81348 90.45427 35168 ft 473 kts 78°
2026-02-19 08:36 38.82942 90.57903 35171 ft 473 kts 78°
2026-02-19 08:37 38.83998 90.66226 35175 ft 473 kts 78°
2026-02-19 08:37 38.85048 90.74551 35177 ft 473 kts 78°
2026-02-19 08:38 38.86093 90.82887 35185 ft 473 kts 78°
2026-02-19 08:38 38.87132 90.91218 35193 ft 473 kts 78°
2026-02-19 08:39 38.88226 90.99537 35205 ft 472 kts 76°
2026-02-19 08:39 38.89560 91.07794 35213 ft 472 kts 75°
2026-02-19 08:40 38.91583 91.20167 35227 ft 472 kts 76°
2026-02-19 08:41 38.92888 91.28432 35229 ft 472 kts 76°
2026-02-19 08:41 38.94178 91.36707 35234 ft 473 kts 76°
2026-02-19 08:42 38.95462 91.44987 35234 ft 473 kts 76°
2026-02-19 08:42 38.96741 91.53271 35231 ft 473 kts 76°
2026-02-19 08:43 38.98018 91.61572 35223 ft 473 kts 76°
2026-02-19 08:43 38.99289 91.69875 35230 ft 473 kts 76°
2026-02-19 08:44 39.00554 91.78187 35224 ft 474 kts 76°
2026-02-19 08:44 39.02441 91.90660 35216 ft 474 kts 76°
2026-02-19 08:45 39.03693 91.98990 35228 ft 474 kts 76°
2026-02-19 08:45 39.04940 92.07321 35221 ft 475 kts 76°
2026-02-19 08:46 39.06174 92.15604 35215 ft 475 kts 76°
2026-02-19 08:46 39.07411 92.23942 35227 ft 474 kts 75°
2026-02-19 08:47 39.09363 92.31988 35234 ft 469 kts 64°
2026-02-19 08:47 39.12347 92.39416 35234 ft 467 kts 57°
2026-02-19 08:48 39.17217 92.50276 35231 ft 467 kts 57°
2026-02-19 08:49 39.20441 92.57545 35221 ft 467 kts 58°
2026-02-19 08:49 39.23642 92.64831 35229 ft 467 kts 58°
2026-02-19 08:50 39.26838 92.72139 35218 ft 467 kts 58°
2026-02-19 08:50 39.30023 92.79443 35214 ft 467 kts 58°
2026-02-19 08:51 39.33210 92.86762 35207 ft 467 kts 58°
2026-02-19 08:51 39.36390 92.94082 35199 ft 467 kts 58°
2026-02-19 08:52 39.39568 93.01414 35195 ft 468 kts 58°
2026-02-19 08:52 39.44331 93.12435 35186 ft 468 kts 58°
2026-02-19 08:53 39.47501 93.19792 35184 ft 468 kts 58°
2026-02-19 08:53 39.50668 93.27161 35177 ft 468 kts 58°
2026-02-19 08:54 39.55389 93.38176 35173 ft 469 kts 58°
2026-02-19 08:55 39.60145 93.49314 35169 ft 469 kts 58°
2026-02-19 08:56 39.64849 93.60368 35165 ft 469 kts 58°
2026-02-19 08:56 39.69566 93.71493 35164 ft 469 kts 58°
2026-02-19 08:57 39.72699 93.78907 35160 ft 469 kts 58°
2026-02-19 08:57 39.75830 93.86332 35170 ft 468 kts 58°
2026-02-19 08:58 39.78955 93.93759 35146 ft 469 kts 58°
2026-02-19 08:58 39.82079 94.01204 35165 ft 469 kts 58°
2026-02-19 08:59 39.85196 94.08649 35169 ft 469 kts 58°
2026-02-19 08:59 39.88312 94.16111 35160 ft 469 kts 58°
2026-02-19 09:00 39.92973 94.27309 35158 ft 469 kts 58°
2026-02-19 09:01 39.96078 94.34791 35156 ft 470 kts 58°
2026-02-19 09:01 39.99182 94.42288 35168 ft 470 kts 58°
2026-02-19 09:02 40.02285 94.49801 35174 ft 471 kts 58°
2026-02-19 09:02 40.05387 94.57331 35170 ft 471 kts 58°
2026-02-19 09:03 40.08488 94.64876 35167 ft 473 kts 58°
2026-02-19 09:03 40.11577 94.72469 35163 ft 474 kts 59°
2026-02-19 09:04 40.14728 94.79980 35153 ft 465 kts 47°
2026-02-19 09:04 40.19821 94.84759 35184 ft 450 kts 17°
2026-02-19 09:04 40.22829 94.85740 35169 ft 446 kts
2026-02-19 09:05 40.29019 94.86478 35172 ft 448 kts
2026-02-19 09:05 40.35216 94.87520 35174 ft 451 kts
2026-02-19 09:06 40.41424 94.88872 35167 ft 452 kts
2026-02-19 09:06 40.46584 94.90008 35160 ft 452 kts
2026-02-19 09:07 40.52788 94.91336 35155 ft 452 kts
2026-02-19 09:07 40.58991 94.92643 35149 ft 450 kts
2026-02-19 09:08 40.68259 94.94590 35143 ft 449 kts
2026-02-19 09:09 40.74419 94.95888 35143 ft 448 kts
2026-02-19 09:09 40.80566 94.97187 35140 ft 447 kts
2026-02-19 09:10 40.86710 94.98487 35136 ft 447 kts
2026-02-19 09:10 40.92844 94.99788 35135 ft 447 kts
2026-02-19 09:11 40.98986 95.01093 35131 ft 447 kts
2026-02-19 09:11 41.05138 95.02403 35125 ft 448 kts
2026-02-19 09:12 41.11290 95.03715 35131 ft 448 kts
2026-02-19 09:12 41.20495 95.05683 35133 ft 449 kts
2026-02-19 09:13 41.26678 95.07009 35132 ft 450 kts
2026-02-19 09:13 41.32866 95.08338 35131 ft 451 kts
2026-02-19 09:14 41.39062 95.09671 35128 ft 451 kts
2026-02-19 09:14 41.45258 95.11007 35132 ft 451 kts
2026-02-19 09:15 41.51464 95.12348 35136 ft 451 kts
2026-02-19 09:15 41.57666 95.13689 35132 ft 452 kts
2026-02-19 09:16 41.66970 95.15708 35130 ft 452 kts
2026-02-19 09:17 41.73176 95.17058 35128 ft 452 kts
2026-02-19 09:17 41.79307 95.18819 35112 ft 457 kts 20°
2026-02-19 09:17 41.82023 95.21081 35130 ft 467 kts 37°
2026-02-19 09:18 41.84213 95.24362 35145 ft 479 kts 52°
2026-02-19 09:18 41.85781 95.28343 35124 ft 488 kts 65°
2026-02-19 09:18 41.86601 95.32788 35114 ft 498 kts 82°
2026-02-19 09:19 41.86697 95.42114 35120 ft 503 kts 87°
2026-02-19 09:19 41.86624 95.51511 35124 ft 505 kts 86°
2026-02-19 09:20 41.86651 95.60948 35119 ft 506 kts 86°
2026-02-19 09:20 41.86785 95.75102 35120 ft 506 kts 85°
2026-02-19 09:21 41.86866 95.84530 35105 ft 504 kts 85°
2026-02-19 09:21 41.86934 95.93914 35096 ft 503 kts 85°
2026-02-19 09:22 41.86993 96.03282 35091 ft 501 kts 85°
2026-02-19 09:22 41.87045 96.12559 35082 ft 500 kts 85°
2026-02-19 09:23 41.87091 96.21890 35070 ft 500 kts 85°
2026-02-19 09:23 41.87177 96.31205 35060 ft 499 kts 84°
2026-02-19 09:24 41.87434 96.45165 35039 ft 499 kts 84°
2026-02-19 09:25 41.87592 96.54474 35028 ft 500 kts 84°
2026-02-19 09:25 41.87732 96.63808 35019 ft 500 kts 84°
2026-02-19 09:26 41.87859 96.73159 35014 ft 502 kts 85°
2026-02-19 09:26 41.87980 96.82532 35005 ft 503 kts 85°
2026-02-19 09:27 41.88093 96.91931 34997 ft 504 kts 85°
2026-02-19 09:27 41.88199 97.01344 34994 ft 505 kts 85°
2026-02-19 09:28 41.88299 97.10769 34983 ft 505 kts 85°
2026-02-19 09:28 41.88432 97.24885 34972 ft 505 kts 85°
2026-02-19 09:29 41.88511 97.34297 34964 ft 504 kts 85°
2026-02-19 09:29 41.88583 97.43691 34960 ft 503 kts 85°
2026-02-19 09:30 41.88646 97.53001 34958 ft 502 kts 85°
2026-02-19 09:30 41.88703 97.62348 34954 ft 501 kts 85°
2026-02-19 09:31 41.88752 97.71701 34947 ft 500 kts 85°
2026-02-19 09:31 41.88793 97.81035 34952 ft 500 kts 85°
2026-02-19 09:32 41.88841 97.95026 34944 ft 500 kts 85°
2026-02-19 09:33 41.88863 98.04354 34952 ft 499 kts 85°
2026-02-19 09:33 41.88878 98.13673 34947 ft 500 kts 85°
2026-02-19 09:34 41.88885 98.22996 34952 ft 500 kts 85°
2026-02-19 09:34 41.88885 98.32323 34947 ft 500 kts 85°
2026-02-19 09:35 41.88877 98.41451 34946 ft 500 kts 85°
2026-02-19 09:35 41.88848 98.56770 34941 ft 502 kts 85°
2026-02-19 09:36 41.88785 98.75522 34941 ft 503 kts 85°
2026-02-19 09:36 41.88632 99.03748 34912 ft 506 kts 85°
2026-02-19 09:37 41.88490 99.22617 34922 ft 506 kts 85°
2026-02-19 09:37 41.88318 99.41494 34922 ft 506 kts 85°
2026-02-19 09:38 41.88116 99.60377 34914 ft 505 kts 86°
2026-02-19 09:38 41.87882 99.79203 34918 ft 504 kts 86°
2026-02-19 09:39 41.87619 99.97997 34922 ft 503 kts 86°
2026-02-19 09:39 41.87326 100.16741 34930 ft 502 kts 86°
2026-02-19 09:40 41.86830 100.44849 34938 ft 502 kts 86°
2026-02-19 09:41 41.86461 100.63573 34934 ft 502 kts 86°
2026-02-19 09:41 41.86062 100.82319 34938 ft 503 kts 86°
2026-02-19 09:42 41.85631 101.01085 34938 ft 504 kts 86°
2026-02-19 09:42 41.84995 101.19897 34928 ft 509 kts 94°
2026-02-19 09:42 41.83414 101.29184 34938 ft 515 kts 105°
2026-02-19 09:43 41.80934 101.38202 34946 ft 517 kts 107°
2026-02-19 09:43 41.75868 101.56221 34950 ft 517 kts 107°
2026-02-19 09:44 41.70888 101.74235 34953 ft 517 kts 107°
2026-02-19 09:44 41.63343 102.01262 34962 ft 517 kts 107°
2026-02-19 09:45 41.58285 102.19217 34943 ft 516 kts 107°
2026-02-19 09:45 41.53202 102.37131 34949 ft 515 kts 107°
2026-02-19 09:46 41.48100 102.54991 34952 ft 515 kts 107°
2026-02-19 09:46 41.42976 102.72811 34956 ft 514 kts 107°
2026-02-19 09:47 41.37904 102.90468 34952 ft 514 kts 107°
2026-02-19 09:47 41.32832 103.08328 34962 ft 513 kts 106°
2026-02-19 09:48 41.25469 103.35043 34961 ft 512 kts 107°
2026-02-19 09:49 41.20654 103.52249 34958 ft 512 kts 107°
2026-02-19 09:49 41.15628 103.70098 34959 ft 512 kts 107°
2026-02-19 09:50 41.10612 103.87786 34962 ft 512 kts 107°
2026-02-19 09:50 41.05574 104.05432 34957 ft 512 kts 107°
2026-02-19 09:51 41.00509 104.23058 34962 ft 512 kts 107°
2026-02-19 09:51 40.95792 104.40662 34974 ft 510 kts 103°
2026-02-19 09:52 40.91528 104.58574 34937 ft 510 kts 103°
2026-02-19 09:52 40.84964 104.85447 34956 ft 510 kts 104°
2026-02-19 09:53 40.81318 105.00230 34959 ft 509 kts 104°
2026-02-19 09:53 40.76195 105.20855 34959 ft 508 kts 104°
2026-02-19 09:54 40.72485 105.35678 34964 ft 508 kts 104°
2026-02-19 09:54 40.68031 105.53354 34958 ft 507 kts 104°
2026-02-19 09:55 40.63568 105.70936 34957 ft 505 kts 104°
2026-02-19 09:55 40.59092 105.88440 34964 ft 504 kts 104°
2026-02-19 09:56 40.52361 106.14533 34968 ft 501 kts 103°
2026-02-19 09:57 40.47857 106.31834 34958 ft 500 kts 103°
2026-02-19 09:57 40.43328 106.49116 34958 ft 501 kts 104°
2026-02-19 09:58 40.38762 106.66413 34961 ft 502 kts 104°
2026-02-19 09:58 40.34168 106.83705 34960 ft 502 kts 104°
2026-02-19 09:59 40.31461 107.01254 34971 ft 484 kts 81°
2026-02-19 09:59 40.33536 107.18447 34969 ft 478 kts 74°
2026-02-19 10:00 40.35648 107.35146 34963 ft 479 kts 75°
2026-02-19 10:00 40.38801 107.61038 34960 ft 480 kts 75°
2026-02-19 10:01 40.40879 107.78336 34973 ft 480 kts 75°
2026-02-19 10:01 40.42933 107.95669 34961 ft 481 kts 75°
2026-02-19 10:02 40.44946 108.13036 34957 ft 482 kts 75°
2026-02-19 10:02 40.46932 108.30467 34967 ft 483 kts 75°
2026-02-19 10:03 40.48897 108.47921 34953 ft 484 kts 75°
2026-02-19 10:03 40.50844 108.65437 34975 ft 485 kts 75°
2026-02-19 10:04 40.53723 108.91875 34959 ft 488 kts 76°
2026-02-19 10:05 40.55601 109.09423 34964 ft 488 kts 76°
2026-02-19 10:05 40.57471 109.27164 34964 ft 487 kts 76°
2026-02-19 10:06 40.59305 109.44822 34965 ft 486 kts 76°
2026-02-19 10:06 40.61102 109.62388 34969 ft 484 kts 77°
2026-02-19 10:07 40.62858 109.79817 34972 ft 483 kts 77°
2026-02-19 10:07 40.64580 109.97323 34969 ft 482 kts 79°
2026-02-19 10:08 40.64642 110.15219 34987 ft 486 kts 86°
2026-02-19 10:08 40.64435 110.41879 34978 ft 486 kts 85°
2026-02-19 10:09 40.64282 110.59687 34975 ft 486 kts 86°
2026-02-19 10:09 40.64106 110.77476 34970 ft 486 kts 86°
2026-02-19 10:10 40.63905 110.95128 34989 ft 485 kts 86°
2026-02-19 10:10 40.63676 111.12879 34991 ft 485 kts 86°
2026-02-19 10:11 40.63420 111.30639 34996 ft 485 kts 86°
2026-02-19 10:11 40.63141 111.48392 35006 ft 485 kts 86°
2026-02-19 10:12 40.62671 111.74997 35019 ft 484 kts 86°
2026-02-19 10:13 40.62360 111.92688 35006 ft 483 kts 85°
2026-02-19 10:13 40.61943 112.10416 35022 ft 484 kts 87°
2026-02-19 10:14 40.61541 112.28120 35017 ft 484 kts 87°
2026-02-19 10:14 40.60841 112.54657 34993 ft 485 kts 89°
2026-02-19 10:15 40.59737 112.72357 35010 ft 485 kts 90°
2026-02-19 10:15 40.58398 112.90039 35013 ft 486 kts 90°
2026-02-19 10:16 40.56668 113.16606 35010 ft 486 kts 91°
2026-02-19 10:17 40.55435 113.34320 35009 ft 487 kts 91°
2026-02-19 10:17 40.54176 113.52063 35010 ft 488 kts 91°
2026-02-19 10:18 40.52889 113.69821 35002 ft 488 kts 91°
2026-02-19 10:18 40.51573 113.87601 35004 ft 489 kts 92°
2026-02-19 10:19 40.50330 114.05439 34998 ft 489 kts 90°
2026-02-19 10:19 40.49662 114.23296 34991 ft 490 kts 89°
2026-02-19 10:20 40.48887 114.41205 34963 ft 492 kts 90°
2026-02-19 10:20 40.47646 114.67969 34964 ft 493 kts 90°
2026-02-19 10:21 40.46368 114.94295 34961 ft 493 kts 91°
2026-02-19 10:22 40.45734 115.06913 34884 ft 494 kts 90°
2026-02-19 10:22 40.45393 115.13587 34880 ft 493 kts 90°
2026-02-19 10:23 40.44929 115.22553 34964 ft 491 kts 90°
2026-02-19 10:23 40.44461 115.31504 34982 ft 492 kts 91°
2026-02-19 10:24 40.43984 115.40479 34974 ft 493 kts 91°
2026-02-19 10:24 40.43251 115.53974 34979 ft 495 kts 91°
2026-02-19 10:25 40.42583 115.62978 34985 ft 497 kts 93°
2026-02-19 10:25 40.41815 115.71949 34984 ft 497 kts 93°
2026-02-19 10:26 40.41052 115.80997 34987 ft 497 kts 93°
2026-02-19 10:26 40.40307 115.90013 34984 ft 496 kts 93°
2026-02-19 10:27 40.39564 115.99010 34986 ft 496 kts 93°
2026-02-19 10:27 40.38819 116.07937 34978 ft 495 kts 93°
2026-02-19 10:28 40.37678 116.21394 34990 ft 494 kts 94°
2026-02-19 10:29 40.37029 116.28982 34978 ft 494 kts 94°
2026-02-19 10:29 40.36262 116.37867 34984 ft 493 kts 94°
2026-02-19 10:30 40.35484 116.46808 34988 ft 493 kts 94°
2026-02-19 10:30 40.34805 116.54533 34987 ft 494 kts 94°
2026-02-19 10:31 40.34071 116.62770 34987 ft 493 kts 96°
2026-02-19 10:31 40.33187 116.67119 34984 ft 497 kts 113°
2026-02-19 10:31 40.31365 116.70968 34992 ft 500 kts 131°
2026-02-19 10:31 40.28772 116.73990 35003 ft 501 kts 147°
2026-02-19 10:32 40.25707 116.76142 34993 ft 500 kts 161°
2026-02-19 10:32 40.18950 116.77863 35000 ft 497 kts 175°
2026-02-19 10:32 40.15511 116.78444 34994 ft 499 kts 175°
2026-02-19 10:33 40.08617 116.79678 34996 ft 502 kts 174°
2026-02-19 10:33 40.01701 116.81037 34993 ft 503 kts 174°
2026-02-19 10:34 39.94787 116.82431 34995 ft 502 kts 173°
2026-02-19 10:34 39.87894 116.83811 34993 ft 500 kts 173°
2026-02-19 10:35 39.81097 116.85162 34995 ft 498 kts 173°
2026-02-19 10:35 39.74254 116.86552 34998 ft 497 kts 173°
2026-02-19 10:36 39.64041 116.88685 34999 ft 495 kts 173°
2026-02-19 10:37 39.58396 116.89857 35004 ft 494 kts 173°
2026-02-19 10:37 39.51610 116.91259 35008 ft 494 kts 173°
2026-02-19 10:38 39.43680 116.92892 35013 ft 494 kts 173°
2026-02-19 10:38 39.38558 116.93945 35011 ft 494 kts 173°
2026-02-19 10:39 39.31675 116.95358 35013 ft 495 kts 173°
2026-02-19 10:39 39.24864 116.96755 35016 ft 496 kts 173°
2026-02-19 10:40 39.18189 116.98812 35013 ft 499 kts 154°
2026-02-19 10:40 39.09559 117.24804 35083 ft 500 kts 96°
2026-02-19 10:40 39.07721 117.42598 35077 ft 502 kts 88°
2026-02-19 10:41 39.07380 117.78741 35008 ft 503 kts 88°
2026-02-19 10:41 39.05411 118.14028 34952 ft 493 kts 100°
2026-02-19 10:42 38.99727 118.49018 35062 ft 508 kts 99°
2026-02-19 10:42 38.93985 118.84368 34989 ft 498 kts 100°
2026-02-19 10:43 38.88236 119.19004 35066 ft 500 kts 100°
2026-02-19 10:43 38.82227 119.54377 35046 ft 508 kts 100°
2026-02-19 10:44 38.73430 120.06364 35075 ft 498 kts 101°
2026-02-19 10:44 38.66674 120.21383 35019 ft 508 kts 151°
2026-02-19 10:45 38.54746 120.29829 35018 ft 506 kts 121°
2026-02-19 10:45 38.55261 120.46557 35134 ft 488 kts 62°
2026-02-19 10:45 38.55249 120.63843 35096 ft 506 kts 104°
2026-02-19 10:46 38.48999 120.98567 35037 ft 494 kts 100°
2026-02-19 10:46 38.43491 121.32690 35100 ft 501 kts 100°
2026-02-19 10:46 38.39591 121.49903 35054 ft 511 kts 114°
2026-02-19 10:47 38.32657 121.65622 35036 ft 505 kts 119°
2026-02-19 10:47 38.19023 121.96284 35043 ft 497 kts 118°
2026-02-19 10:48 38.05119 122.27359 35135 ft 513 kts 119°
2026-02-19 10:48 37.91075 122.58441 35074 ft 499 kts 120°
2026-02-19 10:48 37.84176 122.73603 35107 ft 498 kts 120°
2026-02-19 10:49 37.70014 123.04505 35172 ft 516 kts 121°
2026-02-19 10:49 37.55576 123.35349 35085 ft 502 kts 127°
2026-02-19 10:50 37.38705 123.63448 35177 ft 511 kts 129°
2026-02-19 10:50 37.21324 123.92356 35163 ft 518 kts 130°
2026-02-19 10:51 37.16808 124.09193 35236 ft 528 kts 86°
2026-02-19 10:51 37.17725 124.27629 36406 ft 531 kts 88°
2026-02-19 10:51 37.18102 124.46244 37203 ft 537 kts 88°
2026-02-19 10:51 37.18528 124.65098 37246 ft 543 kts 88°
2026-02-19 10:52 37.19636 125.20985 37200 ft 526 kts 89°
2026-02-19 10:53 37.20235 125.58293 37289 ft 545 kts 89°
2026-02-19 10:53 37.20680 125.96229 37196 ft 537 kts 90°
2026-02-19 10:54 37.21008 126.33332 37282 ft 535 kts 90°
2026-02-19 10:54 37.21134 126.52185 37306 ft 546 kts 90°
2026-02-19 10:54 37.21245 126.71333 37255 ft 549 kts 90°
2026-02-19 10:55 37.26634 127.07112 37185 ft 516 kts 42°
2026-02-19 10:55 37.36298 127.20284 37318 ft 525 kts 43°
2026-02-19 10:55 37.46083 127.34509 37271 ft 541 kts 52°
2026-02-19 10:55 37.51191 127.52300 37230 ft 543 kts 79°
2026-02-19 10:56 37.53994 127.70808 37167 ft 534 kts 77°
2026-02-19 10:56 37.62626 128.25913 37284 ft 545 kts 78°
2026-02-19 10:57 37.68343 128.63367 37150 ft 534 kts 78°
2026-02-19 10:57 37.67351 128.81501 37136 ft 521 kts 120°
2026-02-19 10:57 37.59727 128.97051 37217 ft 530 kts 126°
2026-02-19 10:58 37.51940 129.13179 37214 ft 542 kts 125°
2026-02-19 10:58 37.44119 129.29368 37106 ft 538 kts 126°
2026-02-19 10:58 37.36425 129.45240 37098 ft 527 kts 126°
2026-02-19 10:58 37.28786 129.60928 37128 ft 527 kts 126°
2026-02-19 10:59 37.13267 129.92561 37217 ft 545 kts 127°
2026-02-19 10:59 36.97334 130.24633 37117 ft 535 kts 127°
2026-02-19 11:00 36.73612 130.71822 37239 ft 547 kts 128°
2026-02-19 11:01 36.57208 131.04069 37139 ft 547 kts 128°
2026-02-19 11:01 36.41073 131.35492 37182 ft 538 kts 128°
2026-02-19 11:01 36.37341 131.46943 37197 ft 557 kts 104°
2026-02-19 11:02 36.36801 131.51730 37195 ft 564 kts 94°
2026-02-19 11:02 36.36555 131.61483 37200 ft 567 kts 91°
2026-02-19 11:03 36.36388 131.71273 37196 ft 568 kts 91°
2026-02-19 11:03 36.36061 131.83212 37197 ft 567 kts 92°
2026-02-19 11:04 36.34702 132.22263 37201 ft 566 kts 92°
2026-02-19 11:04 36.32464 132.80735 37228 ft 566 kts 93°
2026-02-19 11:05 36.30813 133.19722 37232 ft 566 kts 93°
2026-02-19 11:05 36.29036 133.58669 37196 ft 566 kts 93°
2026-02-19 11:06 36.27093 133.97573 37254 ft 565 kts 94°
2026-02-19 11:06 36.25053 134.36403 37267 ft 565 kts 94°
2026-02-19 11:07 36.25128 134.55798 37270 ft 563 kts 78°
2026-02-19 11:07 36.28332 134.74489 37298 ft 561 kts 75°
2026-02-19 11:07 36.34652 135.12415 37283 ft 562 kts 75°
2026-02-19 11:08 36.43865 135.69477 37292 ft 561 kts 76°
2026-02-19 11:09 36.49834 136.07453 37291 ft 560 kts 76°
2026-02-19 11:09 36.55672 136.45424 37272 ft 557 kts 76°
2026-02-19 11:10 36.61359 136.83245 37287 ft 556 kts 76°
2026-02-19 11:10 36.66830 137.21071 37259 ft 554 kts 77°
2026-02-19 11:11 36.72135 137.58913 37236 ft 555 kts 77°
2026-02-19 11:11 36.77307 137.96722 37279 ft 550 kts 77°
2026-02-19 11:12 36.82429 138.34154 37310 ft 547 kts 77°
2026-02-19 11:12 36.89870 138.90220 37405 ft 546 kts 78°
2026-02-19 11:13 36.92325 139.09230 37280 ft 548 kts 78°
2026-02-19 11:13 36.94738 139.27781 37339 ft 546 kts 77°
2026-02-19 11:13 36.99521 139.65418 37077 ft 552 kts 78°
2026-02-19 11:14 37.01856 139.84339 37206 ft 549 kts 78°
2026-02-19 11:14 37.04145 140.03213 37250 ft 549 kts 77°
2026-02-19 11:14 37.06275 140.20063 37242 ft 550 kts 77°
2026-02-19 11:18 37.10125 140.55861 35605 ft 560 kts 94°
2026-02-19 11:18 37.03324 140.72311 33667 ft 519 kts 149°
2026-02-19 11:19 36.90614 140.76111 31471 ft 445 kts 198°
2026-02-19 11:19 36.79369 140.71831 29323 ft 415 kts 209°
2026-02-19 11:19 36.68349 140.67596 27216 ft 403 kts 208°
2026-02-19 11:19 36.57932 140.63629 25418 ft 390 kts 208°
2026-02-19 11:20 36.47571 140.59686 23708 ft 380 kts 208°
2026-02-19 11:20 36.27881 140.59134 20237 ft 409 kts 134°
2026-02-19 11:20 36.20299 140.69451 18805 ft 403 kts 136°
2026-02-19 11:21 36.12508 140.79451 17035 ft 399 kts 148°
2026-02-19 11:21 36.02727 140.84001 15356 ft 375 kts 166°
2026-02-19 11:21 35.93000 140.88274 13715 ft 368 kts 165°
2026-02-19 11:21 35.83355 140.92525 11972 ft 359 kts 163°
2026-02-19 11:22 35.74089 140.96596 10423 ft 346 kts 163°
2026-02-19 11:22 35.68269 140.99151 9973 ft 321 kts 163°
2026-02-19 11:22 35.60550 141.02533 9913 ft 267 kts 164°
2026-02-19 11:22 35.53790 141.05464 10057 ft 254 kts 168°
2026-02-19 11:23 35.46719 141.07244 10304 ft 271 kts 173°
2026-02-19 11:23 35.39117 141.08221 10249 ft 274 kts 199°
2026-02-19 11:23 35.31787 141.06373 10125 ft 256 kts 204°
2026-02-19 11:23 35.28174 140.99261 8459 ft 198 kts 298°
2026-02-19 11:24 35.31272 140.93330 6366 ft 220 kts 302°
2026-02-19 11:24 35.37270 140.81935 6133 ft 179 kts 301°
2026-02-19 11:24 35.40135 140.76448 6123 ft 201 kts 301°
2026-02-19 11:25 35.42121 140.72472 5978 ft 201 kts 292°
2026-02-19 11:25 35.44109 140.65696 4542 ft 218 kts 290°
2026-02-19 11:25 35.47508 140.60367 3840 ft 189 kts 316°
2026-02-19 11:25 35.51098 140.56325 3853 ft 150 kts 323°
2026-02-19 11:26 35.53959 140.54169 3752 ft 122 kts 325°
2026-02-19 11:26 35.54726 140.53470 3967 ft 143 kts 321°
2026-02-19 11:26 35.55528 140.52772 3981 ft 139 kts 324°
2026-02-19 11:26 35.56337 140.52126 3989 ft 138 kts 326°
2026-02-19 11:27 35.57160 140.51500 3992 ft 140 kts 327°
2026-02-19 11:27 35.57998 140.50879 3987 ft 142 kts 327°
2026-02-19 11:27 35.58859 140.50250 3784 ft 143 kts 328°
2026-02-19 11:27 35.59706 140.49637 3591 ft 140 kts 328°
2026-02-19 11:28 35.60536 140.49036 3404 ft 138 kts 328°
2026-02-19 11:28 35.62207 140.47830 3028 ft 140 kts 329°
2026-02-19 11:28 35.63047 140.47224 2830 ft 140 kts 329°
2026-02-19 11:29 35.63888 140.46617 2631 ft 139 kts 329°
2026-02-19 11:29 35.64722 140.46015 2444 ft 139 kts 329°
2026-02-19 11:29 35.65559 140.45411 2247 ft 139 kts 329°
2026-02-19 11:29 35.66395 140.44807 2055 ft 139 kts 330°
2026-02-19 11:30 35.67231 140.44203 1859 ft 139 kts 330°
2026-02-19 11:30 35.68064 140.43602 1662 ft 139 kts 330°
2026-02-19 11:30 35.68894 140.43001 1474 ft 139 kts 330°
2026-02-19 11:30 35.69724 140.42402 1272 ft 138 kts 330°
2026-02-19 11:31 35.70493 140.41846 1091 ft 138 kts 329°
2026-02-19 11:31 35.71321 140.41247 874 ft 138 kts 328°
2026-02-19 11:31 35.72140 140.40655 683 ft 136 kts 328°
2026-02-19 11:31 35.72955 140.40067 508 ft 135 kts 329°
2026-02-19 11:32 35.73767 140.39480 322 ft 135 kts 329°
2026-02-19 11:32 35.75295 140.38369 148 ft 105 kts 329°
2026-02-19 11:32 35.75767 140.38028 151 ft 52 kts 329°
2026-02-19 11:33 35.75920 140.37917 151 ft 0 kts 329°
2026-02-19 11:34 35.75930 140.37910 150 ft 9 kts 329°